CZ-4B R/B, 43656

Orbit data source: Space-Track

CZ-4B R/B, 43656 is space debris in SSO originally from a launch on Wed, 24 Oct 2018 UTC via a CHANG ZHENG 4B launch vehicle from the Taiyaun Space Center, China (TSC). Debris objects in space refer to the collection of defunct objects orbiting the Earth. Examples of debris include non-operational satellites, rocket bodies, and fragments generated from explosions, collisions, or faulty payload assembly.

Loading next visibility...
Identifier
43656, 2018-081B
Orbit
SSO
Country
Flag of CNCN / PRC
Related business
Flag of CNAliExpress, Alibaba Group (CN)
Manufacturer
SAST?
Mission
Commercial Communications
Bus & Motor
Unknown
Mass
1,020 kg wet, 20 kg dry
Launch date (UTC)
2018-10-24 (7 years ago)
Launch vehicle
CHANG ZHENG 4B
Launch site
Taiyaun Space Center, China (TSC)
Object type
Payload
Rocket body
Debris
Shape & HBR
Box, 0.1 m
Radar Cross Section
0.135 m², Large (>1 m²)

Expand to show TLE details & history
Last TLE update: 15 hours ago

TLE from 15 hours ago
0 CZ-4B R/B
1 43656U 18081B   25257.57214368  .00000161  00000-0  65628-4 0  9998
2 43656  99.3803 148.4011 0204978 340.7860  18.5671 14.31690982359867
Epoch: 2025-09-14T13:43Z
TLE epoch observation values (Epoch: 2025-09-14T13:43:53.213Z)
Latitude
0.00004°
Longitude
-51.35985°
Altitude
650.074 km
Speed
7.605 km/s
True Right ascension
09h 53m 36s
True Declination
0° 00' 00"
Sunlit
Object was in daylight at epoch
Visualization orbit readout
Latitude
Unknown
Longitude
Unknown
Altitude
Unknown
Speed
Unknown
Apparent Right ascension
Unknown
Apparent Declination
Unknown
Sunlit
N/A
Visualization observer readout
Local Sidereal Time
21:13:07
Azimuth
Unknown
Elevation
Unknown
Doppler factor
Unknown
Orbital elements
Apogee altitude
930.052 km
Perigee altitude
636.466 km
Semi-major axis
7,161.396 km
Eccentricity
0.0205
Inclination
99.3803°
RAAN
148.4011°
Arg. of periapsis
340.786°
True anomaly
19.33359°
Mean anomaly
18.5671°
Eccentric anomaly
18.94846°
Mean motion
3.58135 °/min
Orbital period
100.52 mins
BSTAR
0.000065628
Loading maneuver chart data...
Computing Atmospheric mass density...
Loading historical data...
Loading historical data...
Loading historical data...
Loading historical data...
Loading historical data...
Loading historical data...
Loading historical data...

Documentation

Showing up to 5 results
|